Regional Weather Roundup
Issued by NWS

Home | Current Version | Previous Version | Text Only | Print | Product List | Glossary Off
Versions: 1 2 3 4 5 6 7 8 9 10 11 12 13 14 15 16 17 18 19 20 21 22 23 24 25 26 27 28 29 30 31 32 33 34 35 36 37 38 39 40 41 42 43 44 45 46 47 48 49 50

000
ASUS45 KTFX 301019
RWRMT
MONTANA HOURLY WEATHER ROUNDUP
NATIONAL WEATHER SERVICE GREAT FALLS MT
419 AM MDT MON MAR 30 2015

NOTE: "FAIR" INDICATES FEW OR NO CLOUDS BELOW 12000 FEET WITH NO
SIGNIFICANT WEATHER AND/OR OBSTRUCTIONS TO VISIBILITY.

* THESE STATIONS ARE NOT UNDER NWS QUALITY CONTROL. THEY DO NOT
   REPORT WEATHER SUCH AS PRECIPITATION OR FOG.

MTZ001>007-043-301100-
WEST OF THE DIVIDE
CITY           SKY/WX    TMP DP  RH WIND       PRES   REMARKS
KALISPELL      CLEAR     34  30  85 CALM      30.12S
MISSOULA       CLEAR     36  30  79 CALM      30.17R
BUTTE          MOCLDY    34  27  76 CALM      30.18S
MULLAN PASS    PTCLDY    37  27  67 VRB6      30.15S WCI  32
* ESSEX        N/A       35  32  89 SE1        N/A
* EUREKA APT   CLEAR     43  36  76 S5        30.11S
* HAMILTON APT PTCLDY    43  30  60 S14       30.14F
* LIBBY APT    PTCLDY    34  34 100 CALM      30.14S
* LINCOLN      N/A       43  30  60 S3         N/A
* LOOKOUT PASS N/A       37  31  79 N1         N/A
* POLSON       N/A       41  33  73 N/A        N/A
* SEELEY LAKE  N/A       29  26  89 NE2        N/A
* THOMP F APT  CLEAR     37  17  44 N3G8       N/A
* YAAK HILL    N/A       38  35  89 SW2        N/A
$$

MTZ008-052>055-301100-
SOUTHWEST MONTANA
CITY           SKY/WX    TMP DP  RH WIND       PRES   REMARKS
BOZEMAN        CLOUDY    39  28  65 S8        30.16S WCI  33
DILLON         CLOUDY    43  23  45 S13       30.16S
* W YELLOWSTON MOCLDY    27  21  78 N/A        N/A
* BOULDER HILL N/A       42  22  45 S3         N/A
* HOMESTAKE PS N/A       39  24  55 NW3        N/A
* MONIDA PASS  N/A       32  18  56 N/A        N/A
* RAYNOLDS PAS N/A       30  17  58 S9         N/A   WCI  22
* WHITEHALL    N/A       44  29  56 NW6        N/A
* WISE RIVER   N/A       31  25  78 SE4        N/A
$$

MTZ009>010-012-014-046-048-049-054-301100-
EAST SLOPES AND CENTRAL MONTANA
CITY           SKY/WX    TMP DP  RH WIND       PRES   REMARKS
CUT BANK       PTCLDY    37  28  70 NW9       30.04R WCI  30
GREAT FALLS    CLOUDY    46  30  54 W12       30.04S
HELENA         MOCLDY    48  28  46 SW5       30.12S
MALMSTROM AFB  MOCLDY    52  32  47 SW16      30.05R
* CONRAD       CLOUDY    48  32  54 S5         N/A
* DEARBORN     N/A       54  30  40 S8G20      N/A
* EAST GLACIER N/A       44  28  53 W17G26     N/A
* MONARCH      N/A       45  21  38 W22G27     N/A
* PENDROY      N/A       44  28  53 NW7        N/A
* ROGERS PASS  N/A       42  29  60 SE9G20     N/A
* SAINT MARY   N/A       44  28  53 S10G24     N/A
* WHITE SULPH  N/A       46  25  44 NW8G25     N/A
$$

MTZ011-013-016-021-035-040-045-047-050-051-301100-
NORTH CENTRAL MONTANA
CITY           SKY/WX    TMP DP  RH WIND       PRES   REMARKS
HAVRE          CLOUDY    43  32  65 W3        29.98R
LEWISTOWN      MOCLDY    41  30  65 W9        30.03S
* N BAR RANCH  CLEAR     48  27  44 W10       30.05R
* CHINOOK      CLOUDY    45  34  65 W12       29.95R
* FORT BENTON  MOCLDY    48  30  50 SW10      30.03R
* CHESTER      N/A       43  30  60 NW4G9      N/A
* DENTON       N/A       47  28  48 W17        N/A
* GEYSER       N/A       42  23  47 W11        N/A
* JUDITH GAP   N/A       45  21  38 E14        N/A
* LOMA         N/A       49  31  50 SW11G18    N/A
$$

MTZ017>020-022>027-061-062-301100-
NORTHEAST MONTANA
CITY           SKY/WX    TMP DP  RH WIND       PRES   REMARKS
GLASGOW        CLOUDY    46  32  58 W13       29.89R
GLENDIVE       CLOUDY    48  32  54 W12       29.92R
JORDAN         CLOUDY    46  34  63 W9        29.95R
SIDNEY         CLOUDY    45  30  56 SW7       29.86S
WOLF POINT     MOCLDY    41  34  76 W10       29.87S
* BEAVER HILL  N/A       45  28  51 SW14G19    N/A
* CIRCLE       N/A       41  33  73 N/A        N/A
* LINDSAY DVD  N/A       48  31  52 W20G27     N/A
* NAVAJO       N/A       44  33  65 W20G27     N/A
* PLENTYWOOD A PTCLDY    45  34  65 W14       29.80F
* POPLAR APT   MOCLDY    43  34  71 SW13      29.86R
* SACO         N/A       50  33  52 W16G22     N/A
$$

MTZ028>042-056>058-301100-
SOUTHCENTRAL AND SOUTHEAST MONTANA
CITY           SKY/WX    TMP DP  RH WIND       PRES   REMARKS
BAKER          CLOUDY    43  28  56 W9        29.95R
BILLINGS       MOCLDY    50  27  41 NW13      30.05R
LIVINGSTON     MOCLDY    45  25  45 W10       30.12R
MILES CITY     MOCLDY    37  28  70 S3        29.98R
* BIG TIMBER A MOCLDY    46  27  48 SW13      30.10S
* FORSYTH APT  MOCLDY    46  27  48 SW6       30.00R
* ALZADA       N/A       38  26  62 W8         N/A   WCI  32
* HYSHAM       N/A       48  21  34 W4         N/A
* LAME DEER    N/A       47  23  39 W12G17     N/A
* REED POINT   N/A       50  26  39 SE1G6      N/A
* ROSCOE HILL  N/A       48  11  22 W4G9       N/A
$$

REGIONAL REPORTS...DAKOTAS
CITY           SKY/WX    TMP DP  RH WIND       PRES   REMARKS
WILLISTON      CLOUDY    41  32  70 SW12      29.82F
DICKINSON      CLOUDY    43  28  56 SW16      29.86F
BEACH          CLEAR     45  28  51 W16       29.91S
CROSBY         CLEAR     45  36  71 W20       29.77S
TIOGA          FAIR      41  32  70 W12       29.82S
WATFORD CITY   CLEAR     37  32  82 SW9       29.82S WCI  30
BISMARCK       PTCLDY    36  28  73 CALM      29.87F
GRAND FORKS    CLOUDY    37  30  76 SW5       29.89S WCI  33
FARGO          CLOUDY    36  28  73 SW3       29.91F
BUFFALO SD     MOCLDY    39  27  62 W14       29.89S WCI  31
RAPID CITY     CLEAR     39  25  57 W8        29.98F WCI  33
$$

REGIONAL REPORTS...WYOMING/IDAHO/WASHINGTON
CITY           SKY/WX    TMP DP  RH WIND       PRES   REMARKS
GILLETTE       PTCLDY    45  21  38 W12       30.03S
SHERIDAN       PTCLDY    34  27  76 N5        30.05R WCI  29
CODY           CLOUDY    52  16  24 W13G21    30.10R
YELLOWSTONE LA MOCLDY    25  18  75 CALM      30.25F
SALMON         PTCLDY    32  27  82 CALM      30.20S
MULLAN PASS    PTCLDY    37  27  67 VRB6      30.15S WCI  32
SAND POINT     PTCLDY    36  36 100 CALM      30.14S
SPOKANE        CLOUDY    45  37  74 S8        30.12S
$$

REGIONAL REPORTS...ALBERTA
CITY           SKY/WX    TMP DP  RH WIND       PRES   REMARKS
CALGARY        FAIR      36  25  64 CALM      29.98R
LETHBRIDGE     CLEAR     46  32  58 W17       29.97S
MEDICINE HAT   CLEAR     45  36  71 W14       29.95R
EDMONTON       MOCLDY    36  27  70 CALM      29.92R
WATERTON GATE  N/A       46  28  50 SW16G23    N/A
CARDSTON       N/A       46  32  58 SW6        N/A
MILK RIVER     N/A       39  34  82 NW6        N/A   WCI  35
$$

REGIONAL REPORTS...SASKATCHEWAN
CITY           SKY/WX    TMP DP  RH WIND       PRES   REMARKS
SWIFT CURRENT  CLEAR     39  32  76 W12G18    29.86R WCI  32
MOOSE JAW      MOCLDY    37  36  96 W3        29.79F
REGINA         PTCLDY    41  37  86 NE6       29.78R
VAL MARIE      N/A       41  34  76 NW16       N/A
ASSINIBOIA     N/A       39  32  76 W13        N/A   WCI  31
CORONACH       N/A       45  32  60 W17G23     N/A

$$




USA.gov is the U.S. government's official web portal to all federal, state and local government web resources and services.